Weather in Vedlozero

Russia / Republic of Karelia     61°34′19″N   32°50′09″E
temp.,
°C
wind,
m/s
gust,
m/s
humid.,
%
clouds,
%
prec.,
mm/h
press.,
hPa
HPBL,
m
7 march, sun
sun700:00−4s71595100 5.5 986918
03:00−4w4991100 7.6 985613
06:00−11nw119067 0.0 98421
09:00−11n258779 0.0 984116
12:00−8n3785100 0.0 986360
15:00−6nnw51094100 0.3 987722
18:00−7nne61192100 1.5 9901021
21:00−9nne61487100 2.0 993930
8 march, mon
mon800:00−11nne61487100 0.1 997757
03:00−12nne61489100 0.1 1002669
06:00−16nne61391100 0.0 1005496
09:00−19nne51192100 0.1 1008404
12:00−16nne489191 0.0 1011403
15:00−13nne478883 0.0 1013517
18:00−16nne379181 0.0 1014304
21:00−21nne399742 0.0 1016221
9 march, tue
tue900:00−24nne379642 0.0 1018159
03:00−27nne259659 0.0 1019103
06:00−29ne25961 0.0 102094
09:00−27ne25941 0.0 1022139
12:00−19ne23830 0.0 1023310
15:00−15ne12770 0.0 1024400
18:00−18nne12880 0.0 102320
21:00−21nne11900 0.0 102420
10 march, wed
wed1000:00−22nnw11880 0.0 102520
03:00−23nne12870 0.0 102620
06:00−24n11860 0.0 102620
09:00−20nw118522 0.0 102746
12:00−14wnw2375100 0.0 1027246
15:00−11wnw2381100 0.0 1026325
18:00−14w129297 0.0 102520
21:00−19w119257 0.0 102520
11 march, thu
thu1100:00−20wsw11860 0.0 102520
03:00−21s11840 0.0 102520
06:00−21se12850 0.0 102320
09:00−18sse26810 0.0 1022140
12:00−11sse38760 0.0 1019353
15:00−7se511710 0.0 1015804
18:00−9sse4118333 0.0 1011692
21:00−10sse5139364 0.1 1007581